Flock 4be-17

operational
NORAD ID: 60492 Int'l Des: 2024-149 Owner: PLAN Country: US Constellation: planet
LEOCIRCULARRETROGRADESSO

About Flock 4be-17

Description loading...

Live Position

Loading 3D Globe...

Upcoming Passes

Altitude History

Altitude vs Time

uPlot chart will show altitude changes over time

Two-Line Element Set

1 60492U 24149AA 26063.15914494 .00024017 00000-0 67724-3 0 9998
2 60492 97.3834 145.9357 0002063 260.1043 99.9968 15.36408678 86112
Epoch: Mar 4, 2026 • Age: 17 hours

Current Status

Altitude 462.3 km
Velocity 7.64 km/s
Sub-Earth Point 36.41°N, 84.72°W
Launch Date Aug 16, 2024
Age 1.5 years
Type earth observation

Technical Details

Classification Payload
Mass 5.70 kg
Dry Mass 5.70 kg
Total Mass 5.70 kg
Length 0.30 m
Diameter 0.10 m
Span 0.30 m
Shape Box+2 pan
Manufacturer PLAN
Bus Type Cubesat 3U
Phase Status In Orbit
Owner/State PLAN/US

Large Constellations

Loading constellations...